STARLINK-35038, 65482

Orbit data source: Space-Track

STARLINK-35038, 65482 is a payload satellite owned by SpaceX/Seattle (US) in LEO that was launched on Wed, 03 Sep 2025 UTC via an FALCON 9 launch vehicle from the Air Force Eastern Test Range (AFETR). Payload-class satellites include a variety of spacecraft equipped with specific instruments for various scientific and technological missions. These include communications satellites like Starlink; space stations such as the ISS; scientific satellites like the Hubble; Earth observation satellites from companies like Planet Labs, Umbra, and HawkEye 360; GPS; miniature CubeSats for education and research; and military/defense satellites.

Loading next visibility...
Identifier
65482, 2025-195AA
Orbit
LEO
Country
Flag of USUS
Related business
Manufacturer
SpaceX/Seattle
Mission
Operational Commercial Communications
Bus & Motor
STARLINK V2MO, Unknown motor
Mass
575 kg wet, ~530 kg dry
Launch date (UTC)
2025-09-03 (10 months ago)
Launch vehicle
FALCON 9
Launch site
Air Force Eastern Test Range (AFETR)
Object type
Payload
Rocket body
Debris
Shape & HBR
Box + 2 Pan, 17.7 m
Radar Cross Section
36.964 m², Large (>1 m²)

Expand to show TLE details & history
Last TLE update: 16 hours ago

TLE from 16 hours ago
0 STARLINK-35038
1 65482U 25195AA  26171.32549713  .00020836  00000-0  62580-3 0  9991
2 65482  53.1583 140.2905 0001255  93.4714 266.6432 15.34415103 45706
Epoch: 2026-06-20T07:48Z
TLE epoch observation values (Epoch: 2026-06-20T07:48:42.952Z)
Latitude
-0.00001°
Longitude
114.56979°
Altitude
463.61 km
Speed
7.636 km/s
True Right ascension
09h 21m 09s
True Declination
0° 00' 00"
Sunlit
Object was in daylight at epoch
Visualization orbit readout
Latitude
Unknown
Longitude
Unknown
Altitude
Unknown
Speed
Unknown
Apparent Right ascension
Unknown
Apparent Declination
Unknown
Sunlit
N/A
Visualization observer readout
Local Sidereal Time
10:17:59
Azimuth
Unknown
Elevation
Unknown
Doppler factor
Unknown
Orbital elements
Apogee altitude
463.774 km
Perigee altitude
462.057 km
Semi-major axis
6,841.053 km
Eccentricity
0.00013
Inclination
53.1583°
RAAN
140.2905°
Arg. of periapsis
93.4714°
True anomaly
266.62884°
Mean anomaly
266.6432°
Eccentric anomaly
266.63602°
Mean motion
3.83582 °/min
Orbital period
93.85 mins
BSTAR
0.0006258
Loading maneuver chart data...
Computing Atmospheric mass density...
Loading historical data...
Loading historical data...
Loading historical data...
Loading historical data...
Loading historical data...
Loading historical data...
Loading historical data...

Documentation

Showing up to 5 results
|